DLH577 FACT-FYWH

Flight info

Callsign DLH577
Flight time 1h 47m
Altitude 39000
Route KODES1A KODES UN186 NEVAR
Aircraft A346/H-SDE2E3FGHIJ3J4J5M1P2RWXYZ/LB1D1

Departure

Time 2026-05-05 01:02
Airport Cape Town International Airport (FACT)

Arrival

Time 2026-05-05 02:50
Airport Hosea Kutako International Airport (FYWH)
Time Latitude Longitude Altitude Speed Heading
2026-05-05 00:40 -33.96833 18.59788 171 ft 0 kts 254°
2026-05-05 00:51 -33.96833 18.59791 171 ft 1 kts 254°
2026-05-05 00:52 -33.96830 18.59802 172 ft 1 kts 254°
2026-05-05 00:52 -33.96827 18.59817 172 ft 1 kts 254°
2026-05-05 00:52 -33.96823 18.59830 172 ft 1 kts 253°
2026-05-05 00:52 -33.96820 18.59843 172 ft 1 kts 249°
2026-05-05 00:53 -33.96815 18.59855 172 ft 1 kts 237°
2026-05-05 00:53 -33.96805 18.59867 172 ft 1 kts 209°
2026-05-05 00:53 -33.96796 18.59868 172 ft 3 kts 173°
2026-05-05 00:53 -33.96782 18.59865 171 ft 0 kts 166°
2026-05-05 00:56 -33.96788 18.59867 171 ft 2 kts 166°
2026-05-05 00:56 -33.96815 18.59875 172 ft 5 kts 166°
2026-05-05 00:57 -33.96878 18.59894 171 ft 12 kts 166°
2026-05-05 00:57 -33.96978 18.59926 169 ft 16 kts 165°
2026-05-05 00:57 -33.97100 18.59959 169 ft 18 kts 171°
2026-05-05 00:57 -33.97237 18.59997 168 ft 21 kts 165°
2026-05-05 00:58 -33.97391 18.60046 166 ft 24 kts 164°
2026-05-05 00:58 -33.97558 18.60116 164 ft 26 kts 156°
2026-05-05 00:58 -33.97718 18.60191 161 ft 24 kts 160°
2026-05-05 00:58 -33.97871 18.60258 159 ft 22 kts 159°
2026-05-05 00:59 -33.98013 18.60319 159 ft 22 kts 160°
2026-05-05 00:59 -33.98166 18.60385 159 ft 24 kts 161°
2026-05-05 00:59 -33.98328 18.60452 159 ft 24 kts 160°
2026-05-05 00:59 -33.98489 18.60523 160 ft 24 kts 159°
2026-05-05 01:00 -33.98655 18.60595 159 ft 25 kts 160°
2026-05-05 01:00 -33.98788 18.60660 159 ft 14 kts 138°
2026-05-05 01:00 -33.98793 18.60750 161 ft 10 kts 75°
2026-05-05 01:00 -33.98776 18.60826 162 ft 2 kts 75°
2026-05-05 01:01 -33.98772 18.60845 162 ft 3 kts 72°
2026-05-05 01:01 -33.98749 18.60876 162 ft 5 kts 15°
2026-05-05 01:01 -33.98693 18.60865 162 ft 12 kts 346°
2026-05-05 01:01 -33.98460 18.60793 162 ft 76 kts 345°
2026-05-05 01:02 -33.97652 18.60537 165 ft 161 kts 346°
2026-05-05 01:02 -33.96510 18.60158 971 ft 171 kts 344°
2026-05-05 01:02 -33.95409 18.59767 1997 ft 168 kts 343°
2026-05-05 01:02 -33.94334 18.59391 2796 ft 165 kts 343°
2026-05-05 01:03 -33.93197 18.58998 3326 ft 178 kts 343°
2026-05-05 01:03 -33.91970 18.58578 3875 ft 191 kts 341°
2026-05-05 01:03 -33.90812 18.57713 4430 ft 205 kts 311°
2026-05-05 01:03 -33.89959 18.56283 4998 ft 220 kts 302°
2026-05-05 01:04 -33.89089 18.54644 5311 ft 251 kts 307°
2026-05-05 01:04 -33.86156 18.52152 7053 ft 266 kts 329°
2026-05-05 01:04 -33.84458 18.51277 8005 ft 272 kts 348°
2026-05-05 01:05 -33.82564 18.51380 8914 ft 282 kts 15°
2026-05-05 01:05 -33.80851 18.52488 9828 ft 289 kts 33°
2026-05-05 01:05 -33.79208 18.53890 10643 ft 296 kts 32°
2026-05-05 01:05 -33.77447 18.55355 11177 ft 314 kts 32°
2026-05-05 01:06 -33.75610 18.56862 11648 ft 332 kts 32°
2026-05-05 01:06 -33.73632 18.58476 12105 ft 351 kts 32°
2026-05-05 01:06 -33.71566 18.60157 12536 ft 370 kts 32°
2026-05-05 01:06 -33.69419 18.61903 13192 ft 380 kts 32°
2026-05-05 01:07 -33.67212 18.63697 14071 ft 384 kts 32°
2026-05-05 01:07 -33.65008 18.65488 14922 ft 388 kts 32°
2026-05-05 01:07 -33.62735 18.67330 15622 ft 396 kts 31°
2026-05-05 01:07 -33.60416 18.69123 16318 ft 401 kts 25°
2026-05-05 01:08 -33.57813 18.70231 17072 ft 400 kts
2026-05-05 01:08 -33.55040 18.70626 17930 ft 400 kts
2026-05-05 01:08 -33.53749 18.70741 18300 ft 401 kts
2026-05-05 01:08 -33.52144 18.70876 18731 ft 403 kts
2026-05-05 01:09 -33.50157 18.71055 19249 ft 406 kts
2026-05-05 01:09 -33.47365 18.71340 20005 ft 408 kts
2026-05-05 01:09 -33.44517 18.71664 20784 ft 409 kts
2026-05-05 01:09 -33.41697 18.72006 21521 ft 411 kts
2026-05-05 01:10 -33.38870 18.72361 22214 ft 413 kts
2026-05-05 01:10 -33.35992 18.72728 22911 ft 415 kts
2026-05-05 01:10 -33.33098 18.73101 23571 ft 417 kts
2026-05-05 01:10 -33.30235 18.73471 24257 ft 418 kts
2026-05-05 01:11 -33.27329 18.73847 24886 ft 420 kts
2026-05-05 01:11 -33.24436 18.74218 25400 ft 424 kts
2026-05-05 01:11 -33.21474 18.74602 25905 ft 428 kts
2026-05-05 01:11 -33.18491 18.74966 26424 ft 430 kts 360°
2026-05-05 01:12 -33.15521 18.75115 26929 ft 431 kts 356°
2026-05-05 01:12 -33.12500 18.75004 27417 ft 432 kts 352°
2026-05-05 01:12 -33.09530 18.74624 27914 ft 433 kts 348°
2026-05-05 01:12 -33.06550 18.74090 28378 ft 436 kts 348°
2026-05-05 01:13 -33.03508 18.73534 28817 ft 439 kts 347°
2026-05-05 01:13 -33.00401 18.72962 29281 ft 442 kts 347°
2026-05-05 01:13 -32.97356 18.72403 29840 ft 441 kts 347°
2026-05-05 01:13 -32.94343 18.71846 30411 ft 438 kts 347°
2026-05-05 01:14 -32.91353 18.71295 30909 ft 437 kts 347°
2026-05-05 01:14 -32.88318 18.70734 31284 ft 439 kts 347°
2026-05-05 01:14 -32.85313 18.70177 31664 ft 440 kts 347°
2026-05-05 01:14 -32.82285 18.69617 32046 ft 440 kts 347°
2026-05-05 01:15 -32.79266 18.69059 32457 ft 440 kts 347°
2026-05-05 01:15 -32.76255 18.68504 32826 ft 440 kts 347°
2026-05-05 01:15 -32.73223 18.67945 33178 ft 441 kts 347°
2026-05-05 01:15 -32.70160 18.67378 33577 ft 443 kts 347°
2026-05-05 01:16 -32.67139 18.66821 34024 ft 442 kts 347°
2026-05-05 01:16 -32.64120 18.66265 34491 ft 441 kts 347°
2026-05-05 01:16 -32.61061 18.65704 34928 ft 440 kts 346°
2026-05-05 01:16 -32.58036 18.65148 35336 ft 440 kts 347°
2026-05-05 01:17 -32.55026 18.64593 35732 ft 440 kts 346°
2026-05-05 01:17 -32.51976 18.64033 36083 ft 440 kts 346°
2026-05-05 01:17 -32.48954 18.63478 36362 ft 442 kts 346°
2026-05-05 01:17 -32.45924 18.62921 36645 ft 442 kts 346°
2026-05-05 01:18 -32.42852 18.62359 36951 ft 442 kts 346°
2026-05-05 01:18 -32.39827 18.61803 37210 ft 443 kts 346°
2026-05-05 01:18 -32.36796 18.61249 37421 ft 445 kts 346°
2026-05-05 01:18 -32.33693 18.60680 37602 ft 447 kts 346°
2026-05-05 01:19 -32.30628 18.60120 37812 ft 448 kts 346°
2026-05-05 01:19 -32.27560 18.59560 38053 ft 449 kts 346°
2026-05-05 01:19 -32.24438 18.58989 38284 ft 450 kts 346°
2026-05-05 01:19 -32.21347 18.58425 38476 ft 452 kts 346°
2026-05-05 01:20 -32.18249 18.57860 38641 ft 454 kts 346°
2026-05-05 01:20 -32.15141 18.57292 38790 ft 456 kts 346°
2026-05-05 01:20 -32.11974 18.56716 38950 ft 457 kts 346°
2026-05-05 01:20 -32.08846 18.56147 38967 ft 457 kts 346°
2026-05-05 01:21 -32.02555 18.55006 38973 ft 457 kts 346°
2026-05-05 01:21 -31.96243 18.53862 38977 ft 458 kts 346°
2026-05-05 01:22 -31.89975 18.52725 38975 ft 458 kts 346°
2026-05-05 01:22 -31.83668 18.51583 38980 ft 457 kts 346°
2026-05-05 01:23 -31.77405 18.50452 38981 ft 457 kts 346°
2026-05-05 01:23 -31.71109 18.49316 38982 ft 456 kts 346°
2026-05-05 01:24 -31.64862 18.48189 38984 ft 456 kts 346°
2026-05-05 01:24 -31.58597 18.47062 38983 ft 456 kts 346°
2026-05-05 01:25 -31.52341 18.45938 38987 ft 456 kts 346°
2026-05-05 01:25 -31.46050 18.44807 38989 ft 454 kts 346°
2026-05-05 01:26 -31.39822 18.43690 38985 ft 455 kts 346°
2026-05-05 01:26 -31.33546 18.42569 38985 ft 456 kts 346°
2026-05-05 01:27 -31.27259 18.41444 38987 ft 455 kts 346°
2026-05-05 01:27 -31.21005 18.40327 38986 ft 453 kts 346°
2026-05-05 01:28 -31.14787 18.39219 38988 ft 454 kts 346°
2026-05-05 01:28 -31.08511 18.38101 38990 ft 452 kts 345°
2026-05-05 01:29 -31.02315 18.36997 38989 ft 453 kts 346°
2026-05-05 01:29 -30.96032 18.35880 38989 ft 453 kts 346°
2026-05-05 01:30 -30.89795 18.34776 38997 ft 452 kts 346°
2026-05-05 01:30 -30.83608 18.33680 38998 ft 451 kts 346°
2026-05-05 01:31 -30.77388 18.32581 38998 ft 452 kts 346°
2026-05-05 01:31 -30.71142 18.31476 38989 ft 452 kts 346°
2026-05-05 01:32 -30.64907 18.30374 38995 ft 452 kts 346°
2026-05-05 01:32 -30.58680 18.29275 38991 ft 452 kts 346°
2026-05-05 01:33 -30.52437 18.28178 38994 ft 453 kts 346°
2026-05-05 01:33 -30.46229 18.27087 38981 ft 451 kts 346°
2026-05-05 01:34 -30.39995 18.25995 38994 ft 452 kts 345°
2026-05-05 01:34 -30.33744 18.24902 39021 ft 451 kts 345°
2026-05-05 01:35 -30.27569 18.23820 38998 ft 451 kts 345°
2026-05-05 01:35 -30.21290 18.22720 38948 ft 449 kts 345°
2026-05-05 01:36 -30.15102 18.21640 38996 ft 450 kts 345°
2026-05-05 01:36 -30.08935 18.20564 38988 ft 449 kts 346°
2026-05-05 01:37 -30.02749 18.19488 38987 ft 449 kts 345°
2026-05-05 01:37 -29.96585 18.18410 39000 ft 450 kts 345°
2026-05-05 01:38 -29.90385 18.17336 38986 ft 448 kts 345°
2026-05-05 01:38 -29.84202 18.16263 38983 ft 447 kts 345°
2026-05-05 01:39 -29.78062 18.15199 38979 ft 448 kts 345°
2026-05-05 01:39 -29.71853 18.14123 38985 ft 449 kts 345°
2026-05-05 01:40 -29.65712 18.13062 38988 ft 448 kts 345°
2026-05-05 01:40 -29.59500 18.11987 38994 ft 447 kts 345°
2026-05-05 01:41 -29.53383 18.10933 38996 ft 446 kts 345°
2026-05-05 01:41 -29.47193 18.09864 38977 ft 446 kts 345°
2026-05-05 01:42 -29.41106 18.08821 39001 ft 444 kts 345°
2026-05-05 01:42 -29.34977 18.07769 39002 ft 444 kts 345°
2026-05-05 01:43 -29.28849 18.06713 38994 ft 445 kts 345°
2026-05-05 01:43 -29.22763 18.05669 38998 ft 443 kts 345°
2026-05-05 01:44 -29.16643 18.04624 39005 ft 443 kts 345°
2026-05-05 01:44 -29.10532 18.03577 39005 ft 440 kts 345°
2026-05-05 01:45 -29.04481 18.02541 38997 ft 442 kts 345°
2026-05-05 01:45 -28.98358 18.01498 38992 ft 443 kts 345°
2026-05-05 01:46 -28.92255 18.00458 38999 ft 441 kts 345°
2026-05-05 01:46 -28.86220 17.99432 38985 ft 440 kts 344°
2026-05-05 01:47 -28.80148 17.98398 38978 ft 439 kts 345°
2026-05-05 01:47 -28.74075 17.97367 38999 ft 440 kts 344°
2026-05-05 01:48 -28.68064 17.96345 38992 ft 438 kts 345°
2026-05-05 01:48 -28.62022 17.95323 38999 ft 437 kts 344°
2026-05-05 01:49 -28.55988 17.94299 39009 ft 438 kts 344°
2026-05-05 01:49 -28.49959 17.93277 39012 ft 436 kts 344°
2026-05-05 01:50 -28.43965 17.92268 39009 ft 438 kts 344°
2026-05-05 01:50 -28.37914 17.91247 39027 ft 438 kts 343°
2026-05-05 01:51 -28.31882 17.90230 39009 ft 437 kts 343°
2026-05-05 01:51 -28.25883 17.89230 39019 ft 438 kts 345°
2026-05-05 01:52 -28.19786 17.88622 39003 ft 439 kts 348°
2026-05-05 01:52 -28.13656 17.88139 39047 ft 439 kts 347°
2026-05-05 01:53 -28.07557 17.87655 39000 ft 437 kts 347°
2026-05-05 01:53 -28.01523 17.87188 39025 ft 438 kts 347°
2026-05-05 01:54 -27.95438 17.86715 39041 ft 437 kts 347°
2026-05-05 01:54 -27.89360 17.86246 39016 ft 438 kts 347°
2026-05-05 01:55 -27.83292 17.85770 39004 ft 438 kts 347°
2026-05-05 01:55 -27.77183 17.85294 39053 ft 438 kts 347°
2026-05-05 01:56 -27.71121 17.84826 39013 ft 437 kts 347°
2026-05-05 01:56 -27.65016 17.84354 39012 ft 437 kts 347°
2026-05-05 01:57 -27.58932 17.83877 39046 ft 441 kts 347°
2026-05-05 01:57 -27.55888 17.83640 39334 ft 440 kts 347°
2026-05-05 01:57 -27.52817 17.83395 39715 ft 436 kts 346°
2026-05-05 01:58 -27.49831 17.83028 39973 ft 433 kts 343°
2026-05-05 01:58 -27.46853 17.82535 40019 ft 434 kts 343°
2026-05-05 01:58 -27.40850 17.81539 40002 ft 436 kts 343°
2026-05-05 01:59 -27.34841 17.80547 40050 ft 435 kts 342°
2026-05-05 01:59 -27.28865 17.79555 40008 ft 436 kts 343°
2026-05-05 02:00 -27.22837 17.78556 39990 ft 437 kts 342°
2026-05-05 02:00 -27.16796 17.77555 40029 ft 437 kts 342°
2026-05-05 02:01 -27.10799 17.76559 40026 ft 436 kts 342°
2026-05-05 02:01 -27.04772 17.75565 40010 ft 438 kts 342°
2026-05-05 02:02 -26.98745 17.74565 40020 ft 436 kts 342°
2026-05-05 02:02 -26.92702 17.73569 40018 ft 437 kts 343°
2026-05-05 02:03 -26.86707 17.72578 40020 ft 437 kts 343°
2026-05-05 02:03 -26.80684 17.71586 40000 ft 437 kts 343°
2026-05-05 02:04 -26.74666 17.70596 40013 ft 438 kts 342°
2026-05-05 02:04 -26.68625 17.69602 40025 ft 437 kts 342°
2026-05-05 02:05 -26.62629 17.68616 40019 ft 438 kts 342°
2026-05-05 02:05 -26.56589 17.67623 40034 ft 437 kts 342°
2026-05-05 02:06 -26.50545 17.66632 40031 ft 437 kts 342°
2026-05-05 02:06 -26.44514 17.65641 40030 ft 437 kts 342°
2026-05-05 02:07 -26.38515 17.64659 40037 ft 438 kts 342°
2026-05-05 02:07 -26.32496 17.63678 40038 ft 436 kts 342°
2026-05-05 02:08 -26.26471 17.62695 40031 ft 439 kts 342°
2026-05-05 02:08 -26.20413 17.61706 40039 ft 439 kts 342°
2026-05-05 02:09 -26.14353 17.60717 40042 ft 437 kts 342°
2026-05-05 02:09 -26.08324 17.59739 40044 ft 437 kts 342°
2026-05-05 02:10 -26.02357 17.58765 40058 ft 435 kts 342°
2026-05-05 02:10 -25.96348 17.57787 40041 ft 435 kts 342°
2026-05-05 02:11 -25.90354 17.56813 40045 ft 435 kts 342°
2026-05-05 02:11 -25.84317 17.55830 40042 ft 436 kts 342°
2026-05-05 02:12 -25.75297 17.54367 40047 ft 436 kts 342°
2026-05-05 02:13 -25.69289 17.53398 40040 ft 437 kts 342°
2026-05-05 02:13 -25.63277 17.52422 40043 ft 435 kts 342°
2026-05-05 02:14 -25.57307 17.51460 40043 ft 435 kts 342°
2026-05-05 02:14 -25.51279 17.50486 40046 ft 437 kts 342°
2026-05-05 02:15 -25.45244 17.49513 40045 ft 437 kts 342°
2026-05-05 02:15 -25.39217 17.48542 40041 ft 438 kts 342°
2026-05-05 02:16 -25.33203 17.47575 40045 ft 438 kts 342°
2026-05-05 02:16 -25.27138 17.46598 40046 ft 439 kts 342°
2026-05-05 02:17 -25.21066 17.45622 40053 ft 440 kts 342°
2026-05-05 02:17 -25.14999 17.44649 40053 ft 439 kts 342°
2026-05-05 02:18 -25.08997 17.43686 40057 ft 438 kts 342°
2026-05-05 02:18 -25.02959 17.42719 40059 ft 437 kts 342°
2026-05-05 02:19 -24.96912 17.41753 40064 ft 439 kts 342°
2026-05-05 02:19 -24.90879 17.40790 40060 ft 439 kts 342°
2026-05-05 02:20 -24.84806 17.39819 40066 ft 440 kts 342°
2026-05-05 02:20 -24.78741 17.38853 40067 ft 439 kts 342°
2026-05-05 02:21 -24.72673 17.37883 40072 ft 440 kts 342°
2026-05-05 02:21 -24.66612 17.36918 40071 ft 439 kts 342°
2026-05-05 02:22 -24.60586 17.35960 40074 ft 438 kts 342°
2026-05-05 02:22 -24.54537 17.34995 40069 ft 438 kts 343°
2026-05-05 02:23 -24.48475 17.34030 40083 ft 439 kts 343°
2026-05-05 02:23 -24.42392 17.33066 40083 ft 439 kts 343°
2026-05-05 02:24 -24.36312 17.32111 40083 ft 440 kts 343°
2026-05-05 02:24 -24.30271 17.31164 40089 ft 438 kts 343°
2026-05-05 02:25 -24.24198 17.30211 40091 ft 440 kts 343°
2026-05-05 02:25 -24.18125 17.29257 40092 ft 438 kts 343°
2026-05-05 02:26 -24.12081 17.28310 40098 ft 440 kts 343°
2026-05-05 02:26 -24.06046 17.27365 39839 ft 438 kts 342°
2026-05-05 02:26 -24.03017 17.26891 39557 ft 435 kts 342°
2026-05-05 02:27 -24.00054 17.26429 39235 ft 432 kts 342°
2026-05-05 02:27 -23.97083 17.25967 38868 ft 428 kts 342°
2026-05-05 02:27 -23.94134 17.25504 38375 ft 428 kts 342°
2026-05-05 02:27 -23.91178 17.25039 37722 ft 428 kts 342°
2026-05-05 02:28 -23.88221 17.24573 37077 ft 429 kts 342°
2026-05-05 02:28 -23.85265 17.24107 36405 ft 429 kts 343°
2026-05-05 02:28 -23.82296 17.23643 35665 ft 431 kts 343°
2026-05-05 02:28 -23.79355 17.23182 34960 ft 433 kts 343°
2026-05-05 02:29 -23.76358 17.22714 34230 ft 435 kts 343°
2026-05-05 02:29 -23.73347 17.22245 33545 ft 436 kts 343°
2026-05-05 02:29 -23.70350 17.21778 32886 ft 438 kts 343°
2026-05-05 02:29 -23.67321 17.21304 32223 ft 440 kts 344°
2026-05-05 02:30 -23.64276 17.20828 31520 ft 443 kts 343°
2026-05-05 02:30 -23.61245 17.20341 30769 ft 447 kts 344°
2026-05-05 02:30 -23.58151 17.19839 29959 ft 452 kts 344°
2026-05-05 02:30 -23.55020 17.19332 29153 ft 455 kts 345°
2026-05-05 02:31 -23.51875 17.18827 28408 ft 457 kts 345°
2026-05-05 02:31 -23.48730 17.18323 27818 ft 454 kts 345°
2026-05-05 02:31 -23.45616 17.17825 27257 ft 451 kts 345°
2026-05-05 02:31 -23.42509 17.17328 26744 ft 447 kts 345°
2026-05-05 02:32 -23.39470 17.16840 26189 ft 445 kts 345°
2026-05-05 02:32 -23.36408 17.16346 25577 ft 444 kts 345°
2026-05-05 02:32 -23.33355 17.15853 24997 ft 441 kts 345°
2026-05-05 02:32 -23.30321 17.15366 24488 ft 438 kts 344°
2026-05-05 02:33 -23.27313 17.14880 23981 ft 434 kts 345°
2026-05-05 02:33 -23.24327 17.14398 23532 ft 430 kts 345°
2026-05-05 02:33 -23.21399 17.13932 23104 ft 427 kts 346°
2026-05-05 02:33 -23.18405 17.13805 22674 ft 433 kts 356°
2026-05-05 02:34 -23.15387 17.14299 22228 ft 439 kts
2026-05-05 02:34 -23.12505 17.15376 21812 ft 444 kts 17°
2026-05-05 02:34 -23.09678 17.16748 21377 ft 442 kts 18°
2026-05-05 02:34 -23.06887 17.18145 20982 ft 437 kts 19°
2026-05-05 02:35 -23.04125 17.19531 20566 ft 434 kts 19°
2026-05-05 02:35 -23.01416 17.20882 20132 ft 431 kts 19°
2026-05-05 02:35 -22.98680 17.22236 19684 ft 428 kts 19°
2026-05-05 02:35 -22.95968 17.23574 19256 ft 425 kts 19°
2026-05-05 02:36 -22.93291 17.24891 18831 ft 422 kts 18°
2026-05-05 02:36 -22.90624 17.26204 18423 ft 418 kts 18°
2026-05-05 02:36 -22.87976 17.27505 17998 ft 415 kts 18°
2026-05-05 02:36 -22.85351 17.28791 17583 ft 412 kts 18°
2026-05-05 02:37 -22.82764 17.30058 17172 ft 409 kts 18°
2026-05-05 02:37 -22.80176 17.31325 16763 ft 405 kts 18°
2026-05-05 02:37 -22.77607 17.32583 16376 ft 402 kts 18°
2026-05-05 02:37 -22.75055 17.33833 15963 ft 399 kts 18°
2026-05-05 02:38 -22.72564 17.35053 15596 ft 394 kts 18°
2026-05-05 02:38 -22.70099 17.36267 15525 ft 380 kts 19°
2026-05-05 02:38 -22.67883 17.37832 15464 ft 377 kts 37°
2026-05-05 02:38 -22.66234 17.39975 15431 ft 373 kts 53°
2026-05-05 02:39 -22.64992 17.42413 15410 ft 361 kts 57°
2026-05-05 02:39 -22.63851 17.44795 15371 ft 349 kts 57°
2026-05-05 02:39 -22.62753 17.47070 15336 ft 343 kts 57°
2026-05-05 02:39 -22.61627 17.49359 15311 ft 343 kts 56°
2026-05-05 02:40 -22.60493 17.51636 15295 ft 342 kts 56°
2026-05-05 02:40 -22.59357 17.53907 15259 ft 342 kts 56°
2026-05-05 02:40 -22.58235 17.56145 15223 ft 342 kts 56°
2026-05-05 02:40 -22.57106 17.58401 15104 ft 337 kts 56°
2026-05-05 02:41 -22.55996 17.60620 14861 ft 333 kts 56°
2026-05-05 02:41 -22.54900 17.62809 14581 ft 328 kts 56°
2026-05-05 02:41 -22.53820 17.64967 14328 ft 324 kts 56°
2026-05-05 02:41 -22.52769 17.67065 14075 ft 319 kts 55°
2026-05-05 02:42 -22.51714 17.69167 13820 ft 315 kts 54°
2026-05-05 02:42 -22.50822 17.70944 13605 ft 311 kts 54°
2026-05-05 02:42 -22.50328 17.71929 13484 ft 309 kts 54°
2026-05-05 02:42 -22.49298 17.73965 13227 ft 303 kts 52°
2026-05-05 02:43 -22.47961 17.75581 12932 ft 280 kts 21°
2026-05-05 02:43 -22.46197 17.76118 12647 ft 254 kts 349°
2026-05-05 02:43 -22.44507 17.75761 12391 ft 243 kts 340°
2026-05-05 02:43 -22.42883 17.75353 12156 ft 240 kts 342°
2026-05-05 02:44 -22.41285 17.74895 11901 ft 231 kts 326°
2026-05-05 02:44 -22.40168 17.73741 11525 ft 222 kts 297°
2026-05-05 02:44 -22.39750 17.72160 11102 ft 218 kts 278°
2026-05-05 02:44 -22.39587 17.70560 10734 ft 211 kts 281°
2026-05-05 02:45 -22.39381 17.69025 10447 ft 199 kts 281°
2026-05-05 02:45 -22.39190 17.67623 10113 ft 186 kts 281°
2026-05-05 02:45 -22.39256 17.66246 9618 ft 185 kts 261°
2026-05-05 02:45 -22.39752 17.64985 9161 ft 183 kts 251°
2026-05-05 02:46 -22.40305 17.63781 8771 ft 175 kts 251°
2026-05-05 02:46 -22.40832 17.62638 8376 ft 168 kts 250°
2026-05-05 02:46 -22.41351 17.61522 8068 ft 167 kts 250°
2026-05-05 02:46 -22.41873 17.60394 7873 ft 168 kts 249°
2026-05-05 02:47 -22.42394 17.59266 7650 ft 167 kts 249°
2026-05-05 02:47 -22.42899 17.58167 7433 ft 166 kts 248°
2026-05-05 02:47 -22.43420 17.57031 7217 ft 165 kts 248°
2026-05-05 02:47 -22.43926 17.55929 7009 ft 165 kts 247°
2026-05-05 02:48 -22.44439 17.54812 6799 ft 164 kts 247°
2026-05-05 02:48 -22.44940 17.53721 6598 ft 163 kts 246°
2026-05-05 02:48 -22.45443 17.52628 6398 ft 163 kts 246°
2026-05-05 02:48 -22.45949 17.51528 6192 ft 162 kts 245°
2026-05-05 02:49 -22.46446 17.50447 5985 ft 161 kts 245°
2026-05-05 02:49 -22.46941 17.49360 5775 ft 161 kts 246°
2026-05-05 02:49 -22.47431 17.48292 5663 ft 150 kts 245°
2026-05-05 02:49 -22.47800 17.47496 5659 ft 80 kts 245°
2026-05-05 02:50 -22.47951 17.47170 5659 ft 34 kts 244°
2026-05-05 02:50 -22.48055 17.46938 5659 ft 33 kts 244°
2026-05-05 02:50 -22.48156 17.46712 5659 ft 33 kts 244°
2026-05-05 02:50 -22.48260 17.46491 5659 ft 32 kts 243°
2026-05-05 02:51 -22.48346 17.46311 5659 ft 17 kts 232°
2026-05-05 02:51 -22.48429 17.46303 5659 ft 12 kts 161°
2026-05-05 02:51 -22.48492 17.46269 5659 ft 9 kts 244°
2026-05-05 02:51 -22.48523 17.46210 5659 ft 8 kts 232°
2026-05-05 02:52 -22.48579 17.46192 5660 ft 9 kts 158°
2026-05-05 02:52 -22.48613 17.46246 5659 ft 5 kts 119°
2026-05-05 02:52 -22.48625 17.46255 5659 ft 0 kts 155°
2026-05-05 02:53 -22.48626 17.46255 5659 ft 0 kts 160°
2026-05-05 02:53 -22.48630 17.46255 5659 ft 0 kts 188°
2026-05-05 02:53 -22.48635 17.46251 5659 ft 1 kts 232°
2026-05-05 02:54 -22.48639 17.46229 5659 ft 4 kts 277°
2026-05-05 02:54 -22.48621 17.46207 5659 ft 3 kts 344°
2026-05-05 02:54 -22.48595 17.46221 5659 ft 5 kts 61°
2026-05-05 02:54 -22.48612 17.46256 5659 ft 5 kts 162°
2026-05-05 02:55 -22.48624 17.46260 5659 ft 1 kts 154°
2026-05-05 02:55 -22.48624 17.46261 5659 ft 0 kts 153°